Vertical_Velocity
1 2 1 -3 0 -1 -0 -0 3 0 1 -0 -2 -0 1 1 -2 -1 1 4 -2 -1 0 1 -0 2 3 -3 -1 6 1 -9 -5 1 2 4 1 -1 -3 -1 -1 -1 1 0 -0
2 -2 1 -4 0 1 -1 0 1 2 -1 -0 -2 -1 -0 2 1 -8 16 1 -4 -1 1 1 2 5 3 -3 -2 2 -3 -3 0 2 -3 0 -3 1 -3 -1 -2 -0 -1 -2 0
-1 -0 -0 -1 4 1 -2 0 2 -2 0 -0 1 -2 1 1 -1 -6 2 -4 -1 5 -0 1 2 3 2 1 -2 -2 -13 3 1 2 2 -2 -2 -2 -1 -3 4 -1 -0 1 1
-2 3 4 3 1 3 -2 2 1 -2 -2 1 1 -1 0 2 -6 0 5 -3 4 7 1 1 3 1 1 1 -0 -2 -5 1 2 3 -2 -4 -1 -5 -1 -4 5 2 1 -0 0
7 -1 -1 2 0 2 1 3 1 -1 -2 1 2 -0 0 0 4 -1 6 -3 -0 3 4 1 1 -1 1 -1 0 -4 -1 -0 0 -1 0 -1 -8 -1 -8 1 3 2 -0 -2 0
2 -5 3 2 1 2 2 3 0 0 -1 1 2 -0 2 4 -0 -2 1 2 -2 5 5 -1 -1 -0 -2 -1 1 -4 -2 -1 -5 1 -2 -3 -1 15 -6 4 -1 -2 -1 -2 -2
3 1 2 -3 3 1 -0 1 2 3 0 -1 -0 -2 2 4 -2 4 -0 5 -0 2 4 -3 -1 2 -2 2 -2 -1 -5 -1 -5 3 -8 3 -7 -13 1 0 -4 0 -0 1 -4
4 3 -2 -1 3 3 4 -0 2 0 -1 3 -3 -1 1 2 1 1 -0 3 1 0 4 -2 1 -0 -2 2 -1 -1 -3 0 -3 -2 -3 12 -27 -0 -3 -2 -5 -0 2 -0 1
1 5 -2 -3 11 4 3 3 0 -0 0 2 -1 -1 6 1 2 1 2 -0 -2 -0 3 -1 3 3 -2 1 3 -0 0 -1 1 -3 -1 4 -9 -1 -1 0 -2 1 2 -1 -3
1 2 1 3 19 12 5 5 3 1 1 -1 -3 1 2 1 2 1 1 -1 -0 1 -1 1 4 -1 0 0 -5 -0 0 -0 -2 -5 -1 -0 -3 -5 2 -3 -1 1 -2 0 1
-0 -0 3 1 9 -3 19 30 3 -4 -4 -11 1 2 1 3 3 -1 -1 2 2 -0 -3 3 2 -14 7 3 3 2 0 -2 -5 -4 -6 -4 -1 -8 1 -10 -8 -5 -0 -1 -3
1 -1 -2 -0 -0 1 39 -7 7 6 -2 1 -0 0 2 3 3 -0 1 2 0 -1 1 0 -7 3 2 -0 -0 -0 -1 -3 -6 -4 1 -5 -23 -4 -8 -6 -4 3 -0 -3 -2
3 0 1 -1 -2 9 29 25 -5 6 2 -2 0 2 3 5 0 1 1 2 -0 1 -1 1 -2 -1 -0 1 -2 -0 2 -6 6 -5 -1 -2 -52 -25 -6 -3 -6 -3 -3 -7 -5
2 -2 6 -0 5 8 16 15 12 4 6 -3 -5 -7 -1 -2 -2 3 2 2 -0 -3 4 3 3 1 2 -4 3 5 -5 5 -1 4 -3 1 -23 -14 -11 -4 -9 -3 -2 -3 1
9 -2 3 5 -5 4 15 3 34 17 -4 -1 3 -2 3 1 -6 0 6 1 0 -1 -0 -1 2 1 1 -4 6 -6 1 1 1 -0 2 -0 6 -31 -3 -6 -9 1 4 5 6
7 17 -1 1 -11 18 14 24 23 4 -8 -2 -0 2 1 3 -1 1 0 2 -1 1 -1 -3 4 1 -1 -0 1 3 3 -1 1 1 6 -8 -0 -83 6 -3 -0 2 1 2 -4
2 -6 3 5 -14 -9 7 51 15 0 2 -4 -5 1 2 -4 3 1 -3 -4 -3 -1 -0 1 -5 1 5 2 2 3 3 -2 -2 8 -7 -5 15 -64 5 -12 5 -13 -4 2 -4
-4 10 2 2 6 -3 2 43 -1 2 4 1 -1 2 5 -1 4 2 2 -1 0 0 -0 -1 -5 -1 -6 -4 0 -4 -2 -8 -4 -2 -4 4 -9 -38 -7 -2 10 -3 -5 -6 3
-11 -5 1 2 5 -0 12 18 -10 -1 -2 -6 2 3 1 3 1 1 -1 -3 -0 -2 -6 -1 -3 -1 2 2 0 2 1 9 5 -2 11 -11 -20 -13 -8 -2 -17 -8 -8 -1 3
4 -4 2 15 7 0 22 16 -11 7 2 8 -6 -1 -5 -3 -1 -1 -3 1 -1 1 4 2 -5 -2 -3 0 2 2 5 3 5 -0 -1 -4 -5 -36 -19 -2 7 0 -5 -2 -10
1 11 -1 10 25 16 7 11 -8 9 4 0 -2 -5 0 -12 1 -5 3 2 1 0 3 -1 2 -0 0 -5 -0 2 -2 -0 -1 1 1 1 -17 -8 -0 2 -7 -3 -5 -7 -3
12 22 11 3 22 -4 0 16 -11 4 2 -4 4 4 4 -1 -3 -1 -0 -3 -1 1 -5 -3 6 -2 -8 3 7 3 2 9 5 -5 -2 4 -78 -19 -1 3 -14 -5 2 -12 -3
2 18 15 1 -2 -9 2 5 -5 6 -1 4 -3 2 1 -2 -4 -2 -1 -5 -0 1 2 -1 3 -2 -3 -3 1 -7 -3 5 6 12 -13 14 -52 -6 8 11 2 7 11 7 -5
-7 28 25 21 7 -1 -2 -3 -3 -7 5 1 -6 -3 -1 0 -3 -3 0 -0 -1 2 2 6 1 -4 -8 2 3 2 -5 1 6 16 -15 -31 -41 13 5 17 3 2 -0 2 12
2 28 1 -4 -2 -1 3 6 -3 -3 3 -3 -2 1 1 -1 2 -4 1 4 -2 3 1 1 -2 2 -2 -3 2 -4 -3 6 15 -13 5 -26 -4 -7 8 -10 1 2 5 1 -1
8 1 3 -14 -4 1 -0 -0 -4 -6 -10 -4 -1 -0 3 -1 1 -3 -1 0 -1 0 3 -1 -3 -2 -12 4 2 -4 11 11 17 9 3 3 -25 6 5 7 2 -4 0 -4 1
22 27 16 17 2 -5 -10 -1 -2 1 3 1 2 -1 -2 2 -2 1 3 -1 -1 -1 3 5 -3 -0 -11 -0 5 -1 2 -0 1 7 3 -1 6 4 -3 2 1 3 4 6 5
Height
3071 3070 3068 3068 3068 3069 3069 3068 3068 3068 3069 3070 3071 3072 3073 3073 3074 3075 3081 3082 3084 3084 3086 3089 3091 3095 3097 3100 3103 3106 3107 3106 3108 3110 3113 3119 3121 3123 3125 3127 3129 3131 3134 3135 3137
3067 3066 3064 3064 3064 3065 3064 3064 3064 3064 3065 3066 3067 3068 3069 3069 3069 3071 3076 3077 3079 3081 3082 3084 3086 3090 3092 3095 3097 3100 3099 3101 3103 3106 3109 3113 3115 3118 3120 3121 3124 3126 3127 3130 3133
3062 3062 3060 3059 3059 3059 3059 3059 3059 3060 3060 3062 3063 3063 3065 3066 3066 3067 3069 3073 3076 3078 3079 3080 3082 3085 3087 3089 3092 3093 3093 3098 3100 3101 3103 3106 3109 3111 3114 3115 3120 3121 3123 3125 3127
3057 3055 3055 3054 3053 3053 3054 3054 3055 3055 3056 3058 3059 3059 3061 3063 3065 3063 3064 3067 3070 3072 3075 3076 3078 3081 3084 3085 3087 3088 3091 3093 3095 3096 3097 3100 3102 3104 3105 3110 3114 3115 3117 3119 3121
3047 3049 3049 3049 3048 3047 3048 3049 3050 3051 3051 3054 3054 3056 3057 3059 3059 3060 3062 3064 3063 3068 3071 3073 3075 3077 3079 3081 3083 3084 3087 3088 3089 3090 3091 3093 3093 3096 3096 3103 3107 3109 3111 3113 3116
3038 3040 3041 3042 3042 3042 3042 3043 3045 3046 3047 3049 3050 3051 3053 3055 3056 3056 3058 3062 3062 3065 3068 3069 3072 3074 3075 3077 3079 3080 3081 3083 3084 3086 3085 3085 3087 3086 3090 3096 3100 3102 3105 3108 3110
3029 3029 3031 3034 3036 3036 3036 3037 3040 3041 3042 3043 3046 3047 3048 3051 3052 3053 3055 3059 3061 3063 3065 3066 3068 3070 3072 3074 3075 3076 3077 3078 3079 3081 3079 3079 3074 3074 3086 3087 3089 3093 3096 3100 3103
3018 3018 3020 3024 3028 3030 3031 3032 3034 3035 3036 3038 3040 3043 3043 3046 3048 3050 3051 3054 3057 3059 3061 3062 3064 3066 3068 3070 3071 3072 3073 3072 3073 3074 3075 3075 3062 3073 3079 3077 3080 3084 3087 3090 3094
3007 3008 3010 3015 3018 3022 3025 3026 3028 3029 3030 3032 3036 3039 3040 3041 3043 3046 3047 3050 3053 3054 3056 3059 3060 3062 3066 3067 3068 3068 3067 3067 3070 3069 3070 3067 3058 3066 3069 3069 3069 3071 3074 3078 3083
2994 2995 2998 3003 3007 3014 3018 3020 3021 3023 3025 3027 3031 3037 3035 3036 3038 3041 3043 3045 3048 3050 3053 3055 3056 3056 3060 3061 3062 3063 3063 3064 3064 3066 3064 3060 3051 3058 3060 3060 3059 3060 3063 3067 3070
2983 2984 2987 2991 2999 3006 3011 3007 3013 3017 3018 3023 3027 3027 3030 3032 3034 3037 3039 3042 3044 3047 3048 3050 3052 3051 3056 3058 3059 3060 3060 3060 3060 3063 3057 3051 3043 3046 3050 3048 3048 3051 3054 3057 3060
2977 2976 2977 2981 2986 2995 2997 2997 3005 3013 3015 3018 3020 3023 3026 3029 3031 3033 3036 3039 3040 3043 3045 3049 3045 3050 3052 3053 3055 3056 3055 3055 3055 3057 3052 3044 3024 3032 3036 3037 3041 3043 3044 3048 3052
2971 2970 2970 2972 2975 2980 2986 2992 3001 3006 3010 3012 3015 3018 3021 3024 3026 3029 3032 3034 3037 3040 3042 3043 3045 3045 3047 3050 3051 3051 3051 3052 3052 3050 3047 3040 3011 3019 3021 3024 3028 3032 3034 3037 3041
2965 2965 2964 2965 2971 2972 2978 2986 2993 3001 3005 3006 3007 3011 3014 3017 3022 3024 3027 3033 3033 3037 3040 3040 3040 3041 3043 3045 3048 3046 3048 3048 3048 3048 3045 3042 3018 3007 3010 3014 3019 3022 3024 3026 3030
2959 2959 2959 2960 2959 2963 2976 2981 2987 2995 3000 2998 2998 3000 3005 3013 3015 3018 3022 3024 3028 3032 3036 3035 3036 3037 3038 3041 3043 3043 3043 3044 3044 3044 3041 3037 3041 2987 2998 3000 3007 3013 3015 3016 3019
2952 2948 2951 2953 2952 2959 2970 2976 2981 2989 2986 2988 2990 2994 3000 3004 3009 3014 3017 3021 3025 3028 3029 3029 3031 3033 3034 3037 3038 3041 3041 3041 3041 3042 3034 3029 3031 2982 2991 2993 2995 2999 3003 3004 3007
2942 2940 2938 2940 2943 2955 2965 2967 2973 2974 2979 2983 2986 2991 2996 3001 3007 3010 3013 3017 3021 3025 3025 3025 3025 3027 3030 3032 3035 3036 3038 3040 3040 3035 3024 3021 3018 2979 2986 2990 2992 2993 2995 2996 2999
2934 2928 2924 2927 2936 2948 2957 2963 2965 2968 2972 2977 2982 2989 2995 2999 3005 3008 3012 3015 3017 3019 3021 3022 3021 3021 3023 3025 3028 3028 3033 3035 3033 3027 3019 3018 2996 2970 2976 2977 2983 2981 2981 2985 2987
2925 2920 2922 2922 2930 2942 2954 2958 2958 2963 2969 2973 2983 2988 2992 2998 3003 3006 3010 3011 3012 3013 3018 3017 3017 3017 3020 3022 3025 3025 3026 3029 3028 3024 3018 3003 2983 2964 2968 2970 2974 2973 2974 2977 2979
2923 2921 2921 2925 2931 2941 2950 2953 2957 2963 2967 2973 2976 2984 2988 2994 2999 3003 3006 3006 3007 3008 3012 3014 3017 3017 3017 3018 3020 3021 3024 3026 3026 3024 3012 2988 2977 2967 2964 2964 2963 2963 2961 2961 2963
2921 2921 2923 2926 2933 2943 2946 2951 2958 2962 2967 2973 2975 2980 2986 2990 2996 2999 3003 3004 3005 3006 3008 3011 3014 3014 3013 3012 3015 3018 3019 3020 3022 3018 3009 2991 2962 2961 2960 2958 2954 2949 2945 2943 2949
2920 2921 2923 2927 2932 2939 2949 2952 2957 2962 2967 2972 2977 2980 2985 2990 2994 2998 2998 3001 3002 3004 3005 3007 3008 3007 3007 3008 3010 3012 3013 3014 3014 3008 3002 2998 2954 2949 2954 2954 2947 2937 2925 2925 2938
2919 2919 2925 2927 2934 2943 2951 2953 2958 2963 2968 2973 2976 2981 2985 2988 2993 2995 2996 2998 3000 3001 3002 3003 3003 3004 3002 3004 3002 3004 3004 3004 3002 3002 2992 2993 2951 2947 2950 2949 2941 2932 2924 2928 2934
2921 2919 2926 2929 2935 2941 2949 2955 2958 2963 2969 2972 2977 2981 2984 2987 2990 2992 2993 2996 2996 2997 2999 3000 2998 2998 2998 2999 3000 2997 2997 2995 2993 2989 2977 2961 2946 2935 2945 2942 2935 2928 2928 2931 2938
2924 2923 2929 2935 2941 2946 2951 2955 2956 2963 2968 2971 2976 2979 2982 2985 2987 2987 2990 2992 2993 2995 2995 2996 2994 2994 2992 2993 2993 2988 2984 2981 2978 2972 2972 2946 2958 2943 2943 2935 2931 2928 2929 2934 2941
2928 2930 2932 2933 2938 2944 2949 2953 2958 2962 2968 2971 2974 2978 2980 2982 2984 2984 2986 2988 2989 2989 2991 2992 2992 2991 2986 2987 2984 2977 2970 2967 2964 2961 2960 2956 2951 2947 2941 2938 2934 2932 2934 2936 2941
2925 2929 2933 2934 2939 2945 2948 2953 2958 2963 2968 2970 2973 2975 2977 2980 2981 2982 2982 2983 2985 2986 2988 2990 2990 2991 2983 2979 2975 2970 2965 2963 2960 2957 2955 2953 2952 2948 2944 2940 2939 2939 2940 2942 2947